Flag for Germany Weather past 2 weeks in Bad Neuenahr-Ahrweiler, Rhineland-Palatinate, Germany

Now
52 °F

Passing clouds.


Feels Like: 52 °F
Forecast: 44 / 59 °F
Wind: 3 mph from Northeast

Location: Bonn-Hangelar

Current Time: Oct 23, 2014 at 6:56:02 PM

Latest Report: Oct 23, 2014 at 6:00 PM


Visibility: 16 mi

Pressure: 30.20 "Hg

Humidity: 83%

Dew point: 47 °F

Location of Bad Neuenahr-AhrweilerLocation

Historic Weather in Bad Neuenahr-Ahrweiler — Graph

°F

Bad Neuenahr-Ahrweiler temperature yesterday

Maximum temperature yesterday: 50 °F (at 4:00 PM)
Minimum temperature yesterday: 40 °F (at 4:00 AM)
Average temperature yesterday: 45 °F

Past Weeks' High & Low Weather Summary

 TemperatureHumidityPressure
High72 °F (Oct 18, 5:00 PM)98% (Oct 12, 10:00 PM)30.25 "Hg (Oct 12, 10:00 PM)
Low40 °F (Oct 22, 4:00 AM)52% (Oct 14, 4:00 PM)29.55 "Hg (Oct 21, 4:00 PM)
Average56 °F81%29.89 "Hg
* Reported Oct 8 5:00 PM — Oct 23 5:00 PM, Bad Neuenahr-Ahrweiler, Weather by CustomWeather, © 2014

Note: Actual official high and low records may vary slightly from our data, if they occured in-between our weather recording intervals... More about our weather records

Advertising

Bad Neuenahr-Ahrweiler weather history for previous 24 hours

 ConditionsComfort  
Time TempWeatherWind HumidityBarometerVisibility
5:00 PM
Oct 23
53 °FOvercast.6 mph82%30.22 "Hg16 mi
4:00 PM54 °FPassing clouds.No wind81%30.22 "Hg12 mi
3:00 PM53 °FOvercast.6 mph82%30.22 "Hg9 mi
2:00 PM53 °FOvercast.6 mph84%30.24 "Hg9 mi
1:00 PM51 °FOvercast.6 mph84%30.25 "Hg9 mi
12:00 PM50 °FOvercast.6 mph85%30.25 "Hg12 mi
11:00 AM49 °FOvercast.5 mph86%30.25 "Hg9 mi
10:00 AM47 °FOvercast.6 mph86%30.24 "Hg6 mi
9:00 AM47 °FOvercast.6 mph86%30.24 "Hg6 mi
8:00 AM47 °FOvercast.5 mph87%30.22 "Hg6 mi
7:00 AM47 °FOvercast.3 mph89%30.22 "Hg7 mi
6:00 AM47 °FOvercast.3 mph87%30.22 "Hg7 mi
5:00 AM47 °FOvercast.5 mph89%30.22 "Hg6 mi
4:00 AM46 °FOvercast.5 mph91%30.23 "Hg6 mi
3:00 AM46 °FOvercast.5 mph89%30.24 "Hg6 mi
2:00 AM46 °FOvercast.5 mph90%30.23 "Hg6 mi
1:00 AM46 °FOvercast.5 mph91%30.23 "Hg6 mi
12:00 AM46 °FOvercast.5 mph91%30.23 "Hg6 mi
11:00 PM
Oct 22
47 °FOvercast.6 mph90%30.22 "Hg7 mi
10:00 PM47 °FOvercast.5 mph92%30.21 "Hg7 mi
9:00 PM47 °FOvercast.7 mph93%30.19 "Hg12 mi
8:00 PM46 °FPassing clouds.6 mph92%30.18 "Hg14 mi
7:00 PM48 °FLow clouds.8 mph86%30.17 "Hg19 mi
6:00 PM48 °FPartly sunny.7 mph84%30.16 "Hg25 mi
Weather by CustomWeather, © 2014

See weather overviewHow to use our weather pages